Change the Weather History Date:

Saturday, March 9, 2013

  Actual Average Record
Temperature  
Mean Temperature 42 °F -  
Max Temperature 53 °F 43 °F 60 °F (1973)
Min Temperature 27 °F 24 °F 8 °F (2007)
Degree Days  
Heating Degree Days 24    
Moisture  
Dew Point 22 °F    
Average Humidity 54    
Maximum Humidity 92    
Minimum Humidity 24    
Precipitation  
Precipitation 0.00 in - - ()
Sea Level Pressure  
Sea Level Pressure 30.21 in    
Wind  
Wind Speed 11 mph (NNE)    
Max Wind Speed 20 mph    
Max Gust Speed 29 mph    
Visibility 9 miles    
Events      
Averages and records for this station are not official NWS values.
T = Trace of Precipitation, MM = Missing Value Source: NWS Daily Summary

Daily Weather History Graph

Daily Weather History Graph

Search for Another Location

Airport or City:

Trip Planner

Search our weather history database for the weather conditions in past years. The results will help you decide how hot, cold, wet, or windy it might be!

Date:

Astronomy

Mar. 09, 2013 Rise Set
Actual Time 6:09 AM EST 5:48 PM EST
Civil Twilight 5:41 AM EST 6:15 PM EST
Nautical Twilight 5:10 AM EST 6:47 PM EST
Astronomical Twilight 4:37 AM EST 7:20 PM EST
Moon 4:32 AM EST (3/9) 3:46 PM EST (3/9)
Length of Visible Light 12h 34m
Length of Day
11h 38m
Waning Crescent, 5% of the Moon is Illuminated
Mar 9
Waning Crescent
Mar 11
New
Mar 19
First Quarter
Mar 27
Full
Apr 3
Last Quarter

Hourly Weather History & Observations

Time (EST) Temp. Windchill Dew Point Humidity Pressure Visibility Wind Dir Wind Speed Gust Speed Precip Events Conditions
12:56 AM 37.0 °F 28.1 °F 21.0 °F 52% 30.10 in 10.0 mi North 15.0 mph 25.3 mph N/A   Clear
1:56 AM 36.0 °F 27.1 °F 21.0 °F 55% 30.10 in 10.0 mi North 13.8 mph - N/A   Clear
2:56 AM 36.0 °F 28.0 °F 19.9 °F 52% 30.10 in 10.0 mi North 11.5 mph - N/A   Clear
3:56 AM 36.0 °F 27.5 °F 19.0 °F 50% 30.11 in 10.0 mi North 12.7 mph - N/A   Clear
4:56 AM 34.0 °F 24.2 °F 19.0 °F 54% 30.12 in 10.0 mi North 15.0 mph - N/A   Clear
5:56 AM 33.1 °F 23.9 °F 19.0 °F 56% 30.14 in 10.0 mi North 12.7 mph - N/A   Clear
6:56 AM 33.8 °F 26.4 °F 19.4 °F 56% 30.17 in 10.0 mi North 9.2 mph - N/A   Clear
7:56 AM 37.0 °F 26.7 °F 18.0 °F 46% 30.19 in 10.0 mi North 19.6 mph 28.8 mph N/A   Clear
8:56 AM 39.9 °F 32.1 °F 19.0 °F 43% 30.18 in 10.0 mi NNE 13.8 mph 20.7 mph N/A   Clear
9:56 AM 42.1 °F 36.6 °F 19.0 °F 40% 30.20 in - North 9.2 mph - N/A   Clear
10:56 AM 44.1 °F 36.8 °F 18.0 °F 35% 30.20 in - NNE 16.1 mph - N/A   Clear
11:56 AM 46.9 °F - 17.1 °F 30% 30.21 in - NNE 12.7 mph 20.7 mph N/A   Clear
12:56 PM 50.0 °F - 18.0 °F 28% 30.19 in 10.0 mi North 12.7 mph - N/A   Clear
1:56 PM 51.1 °F - 17.1 °F 26% 30.19 in 10.0 mi North 12.7 mph - N/A   Clear
2:56 PM 53.1 °F - 18.0 °F 25% 30.19 in 10.0 mi NNE 9.2 mph - N/A   Clear
3:56 PM 53.6 °F - 17.6 °F 24% 30.20 in 10.0 mi Variable 6.9 mph - N/A   Clear
4:56 PM 42.1 °F 37.7 °F 33.1 °F 70% 30.23 in 8.0 mi SSE 6.9 mph - N/A   Clear
5:56 PM 39.9 °F 37.8 °F 30.9 °F 70% 30.26 in 8.0 mi ESE 3.5 mph - N/A   Clear
6:56 PM 39.0 °F - 30.9 °F 73% 30.27 in 9.0 mi Calm Calm - N/A   Clear
7:56 PM 35.1 °F 31.0 °F 28.9 °F 78% 30.30 in 8.0 mi ENE 4.6 mph - N/A   Clear
8:56 PM 33.1 °F 28.7 °F 28.0 °F 82% 30.31 in 9.0 mi ENE 4.6 mph - N/A   Clear
9:56 PM 30.9 °F - 27.0 °F 85% 30.31 in 8.0 mi Calm Calm - N/A   Clear
10:56 PM 30.0 °F - 26.1 °F 85% 30.32 in 9.0 mi Calm Calm - N/A   Clear
11:56 PM 27.0 °F 20.5 °F 25.0 °F 92% 30.34 in 9.0 mi NNW 5.8 mph - N/A   Clear